Spokane Felts, WA
on Thursday, February 28, 2013

Thursday
Previous Day Next Day
Daily Summary
 ActualAverageRecord
Temperature
Mean Temperature °F 37°F  
Max Temperature 44°F 46°F 53°F (2008)
Min Temperature 35°F 27°F 15°F (2012)
Degree Days
Heating Degree Days 25 28  
Month to date heating degree days 807 860  
Since 1 July heating degree days 4108 4571  
Cooling Degree Days 0 0  
Month to date cooling degree days 0 0  
Year to date cooling degree days 0 0  
Moisture
Dew Point 34°F   
Average Humidity 79    
Maximum Humidity 92    
Minimum Humidity 65    
Precipitation
Precipitation 0.10 in 0.05 in 0.31 in (2006)
Month to date precipitation 0.60 1.38  
Year to date precipitation 2.23 3.33  
Wind
Wind Speed 3 mph   
Max Wind Speed 12 mph   
Max Gust Speed 16 mph   
Visibility 9 miles   
Events Rain   

Key: T is trace of precipitation, MM is missing value
Source: NWS Daily Summary
Time(PST)TemperatureDew PointHumidity Pressure Visibility Wind DirectionWind SpeedGust SpeedPrecipitationEvents Conditions
12:53 AM 37.0°F 28.9°F 73% 30.28 in 10.0 miles Calm Calm - N/A   Overcast
1:53 AM 36.0°F 28.9°F 76% 30.27 in 10.0 miles NE 3.5 mph - N/A   Overcast
2:53 AM 36.0°F 28.9°F 76% 30.28 in 10.0 miles NNE 3.5 mph - N/A   Overcast
3:53 AM 36.0°F 30.0°F 79% 30.29 in 10.0 miles Calm Calm - N/A   Overcast
4:53 AM 37.0°F 30.9°F 79% 30.30 in 10.0 miles Calm Calm - N/A   Overcast
5:02 AM 37.4°F 30.2°F 75% 30.27 in 10.0 miles NNE 3.5 mph - 0.00 in   Overcast
5:53 AM 37.4°F 33.8°F 87% 30.27 in 7.0 miles Calm Calm - N/A Rain Light Rain
6:53 AM 37.0°F 34.0°F 89% 30.33 in 9.0 miles Calm Calm - 0.01 in   Overcast
7:00 AM 37.4°F 33.8°F 87% 30.29 in 9.0 miles Calm Calm - 0.00 in Rain Light Rain
7:53 AM 37.9°F 34.0°F 86% 30.34 in 8.0 miles ENE 3.5 mph - 0.00 in   Overcast
8:53 AM 39.0°F 34.0°F 82% 30.35 in 10.0 miles East 3.5 mph - N/A   Overcast
9:00 AM 39.2°F 33.8°F 81% 30.31 in 9.0 miles ENE 3.5 mph - N/A   Overcast
9:53 AM 39.9°F 35.1°F 83% 30.35 in 10.0 miles Calm Calm - N/A   Overcast
10:53 AM 41.0°F 35.1°F 79% 30.36 in 10.0 miles East 5.8 mph - N/A   Overcast
11:08 AM 41.0°F 35.6°F 81% 30.31 in 10.0 miles SE 5.8 mph - N/A   Overcast
11:53 AM 42.1°F 35.1°F 76% 30.35 in 10.0 miles SSE 6.9 mph - N/A   Overcast
12:53 PM 44.1°F 34.0°F 68% 30.32 in 10.0 miles South 9.2 mph - N/A   Overcast
1:53 PM 44.1°F 35.1°F 71% 30.33 in 10.0 miles SSE 5.8 mph - 0.01 in Rain Light Rain
2:00 PM 42.8°F 35.6°F 76% 30.30 in 10.0 miles SE 5.8 mph - 0.00 in Rain Light Rain
2:53 PM 43.0°F 36.0°F 76% 30.35 in 10.0 miles South 4.6 mph - 0.01 in Rain Light Rain
3:53 PM 42.1°F 36.0°F 79% 30.34 in 6.0 miles SE 6.9 mph - 0.03 in Rain Light Rain
4:53 PM 41.0°F 35.1°F 79% 30.36 in 7.0 miles SE 5.8 mph - 0.03 in Rain Light Rain
5:53 PM 39.9°F 34.0°F 79% 30.36 in 10.0 miles ESE 3.5 mph - 0.01 in   Overcast
6:53 PM 39.9°F 35.1°F 83% 30.36 in 10.0 miles East 4.6 mph - N/A   Overcast
7:53 PM 39.9°F 35.1°F 83% 30.37 in 10.0 miles East 3.5 mph - N/A   Overcast
8:12 PM 39.2°F 35.6°F 87% 30.33 in 10.0 miles East 4.6 mph - N/A   Overcast
8:53 PM 39.9°F 36.0°F 86% 30.38 in 10.0 miles Calm Calm - N/A   Overcast
9:53 PM 39.9°F 37.0°F 89% 30.38 in 6.0 miles Calm Calm - N/A   Overcast
10:53 PM 39.9°F 36.0°F 86% 30.37 in 4.0 miles Calm Calm - N/A   Overcast
11:09 PM 39.2°F 37.4°F 93% 30.34 in 7.0 miles Calm Calm - N/A   Overcast
11:53 PM 39.9°F 37.0°F 89% 30.37 in 10.0 miles Calm Calm - N/A   Overcast
Moon Phase
Feb. 28 Mar. 04 Mar. 11 Mar. 19 Mar. 27
Sunrise:06:31 AM (PST) Moon Rise:09:25 PM (PST)2/28
Sunset:05:33 PM (PST) Moon Set:07:26 AM (PST)2/28

Copyright © 2014 The Weather Underground, Inc.